sat.trackr.live / text

‹ back to catalog

STARLINK-31524

NORAD 59506 · 2024-071Y

PAYLOAD ACTIVE UNKNOWN

§ Identity

Operator
Country
US
Launch date
2024-04-13
Launch site
AFETR
Launch vehicle
Mass (kg)
RCS (m²)

Purposes: comms

External: N2YO · Heavens-Above · Gunter

§ Orbital elements

Epoch: 2026-05-24T17:37:33.341088Z

Period
94.27 min
Inclination
43.0010°
Eccentricity
0.0001266
Mean motion
15.27581224 rev/d
Perigee alt
482.2 km
Apogee alt
483.9 km
Semi-major
6,861.2 km
B*
6.8327e-5
RAAN
263.3442°
Arg perigee
265.1002°
Mean anomaly
94.9705°
Rev number
11,991

§ Raw data

STARLINK-315241 59506U 24071Y   26144.73441367  .00001619  00000+0  68327-4 0  99972 59506  43.0010 263.3442 0001266 265.1002  94.9705 15.27581224119912

JSON: /api/v1/satellites/59506 · /tle

For live sub-satellite position, see the globe view (requires WebGL).

§ Visibility from observer

Set your observer location to see the next 7 days of passes ≥ 10°. The values pass through the URL so the page stays shareable.

No JS? Fill the form by hand. The geolocation button needs JavaScript.